User: anonymous   Login
Location: Unspecified
(0.0000°N, 0.0000°E)
Time: 12:01:49
(UTC+00:00)
Language:

SIMPL - Orbit

View from above orbital plane
View from above orbital plane
View from above satellite
View from above satellite

Ground track
Ground track

The orbit data is extracted from the following two-line orbital elements,

1 42983U 98067NF  18175.97734897  .00004001  00000-0  62626-4 0  9993
2 42983  51.6400 337.6023 0003950 221.2194 138.8500 15.56306777 37435
Epoch (UTC): 24 June 2018 23:27:22
Eccentricity: 0.0003950
inclination: 51.6400°
perigee height: 395 km
apogee height: 401 km
right ascension of ascending node: 337.6023°
argument of perigee: 221.2194°
revolutions per day: 15.56306777
mean anomaly at epoch: 138.8500°
orbit number at epoch: 3743

The dashed part of the orbit path shows where the satellite is in the earth's shadow,  

DLR